FW7504 Weather Reports


time (UTC)temp
C
wind
direction
speed
KPH
gust
KPH
rain 1hr
cm
rain 24hr
cm
rain mn
cm
humidity
%
barometer
mb
20260504041555 12 0 0.0 0.0 0.00 0.00 0.00 68 1019.0
20260504041052 12 0 0.0 0.0 0.00 0.00 0.00 68 1019.0
20260504040552 12 0 0.0 0.0 0.00 0.00 0.00 68 1018.9
20260504040142 12 0 0.0 0.0 0.00 0.00 0.00 68 1018.9
20260504035553 12 0 0.0 0.0 0.00 0.00 0.00 67 1019.0
20260504035056 12 0 0.0 1.6 0.00 0.00 0.00 67 1018.9
20260504034556 12 0 0.0 3.2 0.00 0.00 0.00 67 1019.0
20260504034052 12 360 0.0 3.2 0.00 0.00 0.00 67 1018.8
20260504033553 13 360 0.0 3.2 0.00 0.00 0.00 67 1018.8
20260504033056 13 0 0.0 3.2 0.00 0.00 0.00 66 1018.8
20260504032553 13 0 0.0 0.0 0.00 0.00 0.00 66 1018.8
20260504032055 13 0 0.0 0.0 0.00 0.00 0.00 65 1018.9
20260504031601 13 0 0.0 1.6 0.00 0.00 0.00 65 1018.9
20260504031052 13 0 0.0 1.6 0.00 0.00 0.00 65 1018.8
20260504030552 13 0 0.0 0.0 0.00 0.00 0.00 64 1018.8
20260504030053 13 0 0.0 0.0 0.00 0.00 0.00 64 1018.7
20260504025554 13 0 0.0 0.0 0.00 0.00 0.00 64 1018.5
20260504025057 13 0 0.0 0.0 0.00 0.00 0.00 64 1018.5
20260504024553 13 0 0.0 0.0 0.00 0.00 0.00 64 1018.5
20260504024052 13 0 0.0 0.0 0.00 0.00 0.00 63 1018.4
20260504023553 14 0 0.0 0.0 0.00 0.00 0.00 63 1018.5
20260504023053 14 0 0.0 0.0 0.00 0.00 0.00 63 1018.4
20260504022553 14 0 0.0 0.0 0.00 0.00 0.00 63 1018.5
20260504022053 14 0 0.0 0.0 0.00 0.00 0.00 62 1018.4
20260504021558 14 0 0.0 0.0 0.00 0.00 0.00 62 1018.4
20260504021052 15 0 0.0 0.0 0.00 0.00 0.00 61 1018.4
20260504020552 15 0 0.0 0.0 0.00 0.00 0.00 61 1018.4
20260504020110 15 0 0.0 0.0 0.00 0.00 0.00 60 1018.3
20260504015557 15 0 0.0 0.0 0.00 0.00 0.00 60 1018.2
20260504015054 15 0 0.0 0.0 0.00 0.00 0.00 59 1018.2
20260504014557 15 0 0.0 0.0 0.00 0.00 0.00 60 1018.2
20260504014052 15 0 0.0 0.0 0.00 0.00 0.00 59 1018.2
20260504013552 15 0 0.0 0.0 0.00 0.00 0.00 59 1018.2
20260504013056 15 0 0.0 3.2 0.00 0.00 0.00 58 1018.0
20260504012554 15 0 0.0 3.2 0.00 0.00 0.00 58 1018.0
20260504012052 15 0 0.0 1.6 0.00 0.00 0.00 58 1017.9
20260504011553 16 0 0.0 0.0 0.00 0.00 0.00 58 1017.9
20260504011053 16 0 0.0 0.0 0.00 0.00 0.00 59 1017.9
20260504010554 16 0 0.0 0.0 0.00 0.00 0.00 57 1017.8
20260504010058 16 0 0.0 0.0 0.00 0.00 0.00 56 1017.9
20260504005553 16 0 0.0 0.0 0.00 0.00 0.00 56 1017.7
20260504005053 17 0 0.0 0.0 0.00 0.00 0.00 54 1017.8
20260504004554 17 0 0.0 0.0 0.00 0.00 0.00 55 1017.8
20260504004053 17 0 0.0 0.0 0.00 0.00 0.00 54 1017.8
20260504003552 17 0 0.0 0.0 0.00 0.00 0.00 53 1017.7
20260504003053 17 0 0.0 0.0 0.00 0.00 0.00 51 1017.6
20260504002552 17 0 0.0 0.0 0.00 0.00 0.00 51 1017.7
20260504002052 17 0 0.0 1.6 0.00 0.00 0.00 50 1017.8
20260504001555 18 0 0.0 3.2 0.00 0.00 0.00 51 1017.7
20260504001055 18 0 0.0 3.2 0.00 0.00 0.00 51 1017.6
20260504000551 18 0 0.0 3.2 0.00 0.00 0.00 50 1017.7
20260504000056 18 0 0.0 3.2 0.00 0.00 0.00 49 1017.8
20260503235552 18 0 0.0 4.8 0.00 0.00 0.00 48 1017.7
20260503235055 18 0 1.6 4.8 0.00 0.00 0.00 48 1017.7
20260503234623 18 0 0.0 4.8 0.00 0.00 0.00 50 1017.8
20260503234055 18 360 0.0 3.2 0.00 0.00 0.00 47 1017.8
20260503233553 18 0 0.0 3.2 0.00 0.00 0.00 47 1017.8
20260503233054 19 0 0.0 4.8 0.00 0.00 0.00 48 1017.8
20260503232552 19 0 0.0 4.8 0.00 0.00 0.00 45 1017.9
20260503232052 19 360 0.0 4.8 0.00 0.00 0.00 46 1017.8
20260503231555 19 360 1.6 6.4 0.00 0.00 0.00 44 1017.9
20260503231053 19 0 1.6 6.4 0.00 0.00 0.00 45 1018.0
20260503230553 19 360 0.0 4.8 0.00 0.00 0.00 44 1018.0
20260503230100 19 0 0.0 8.0 0.00 0.00 0.00 44 1017.9
20260503225552 19 360 0.0 8.0 0.00 0.00 0.00 44 1018.0
20260503225053 20 360 3.2 8.0 0.00 0.00 0.00 43 1018.0
20260503224556 20 360 1.6 6.4 0.00 0.00 0.00 42 1018.1
20260503224052 20 360 0.0 4.8 0.00 0.00 0.00 43 1018.0
20260503223553 20 0 0.0 4.8 0.00 0.00 0.00 38 1018.1
20260503223058 20 360 1.6 6.4 0.00 0.00 0.00 41 1018.2
20260503222555 20 360 1.6 6.4 0.00 0.00 0.00 40 1018.1
20260503222052 20 360 0.0 6.4 0.00 0.00 0.00 40 1018.2
20260503221601 20 236 3.2 6.4 0.00 0.00 0.00 37 1018.2
20260503221052 20 0 0.0 8.0 0.00 0.00 0.00 37 1018.1
20260503220552 20 0 1.6 11.3 0.00 0.00 0.00 38 1018.1
20260503220058 21 360 3.2 11.3 0.00 0.00 0.00 37 1018.0
20260503215552 21 224 1.6 11.3 0.00 0.00 0.00 39 1018.1
20260503215051 21 0 1.6 8.0 0.00 0.00 0.00 38 1018.1
20260503214600 21 360 1.6 8.0 0.00 0.00 0.00 39 1018.2
20260503214055 21 0 1.6 8.0 0.00 0.00 0.00 37 1018.2
20260503213553 21 360 1.6 6.4 0.00 0.00 0.00 38 1018.3
20260503213055 21 360 3.2 8.0 0.00 0.00 0.00 40 1018.4
20260503212553 20 360 1.6 8.0 0.00 0.00 0.00 39 1018.5
20260503212053 20 360 1.6 8.0 0.00 0.00 0.00 41 1018.5
20260503211559 20 360 3.2 9.7 0.00 0.00 0.00 39 1018.6
20260503211052 20 360 3.2 9.7 0.00 0.00 0.00 38 1018.6
20260503210552 20 360 1.6 9.7 0.00 0.00 0.00 40 1018.7
20260503210100 20 0 1.6 9.7 0.00 0.00 0.00 39 1018.8
20260503205555 20 360 3.2 9.7 0.00 0.00 0.00 39 1018.9
20260503205052 20 360 1.6 12.9 0.00 0.00 0.00 39 1018.9
20260503204558 20 360 4.8 12.9 0.00 0.00 0.00 36 1019.1
20260503204052 20 360 3.2 12.9 0.00 0.00 0.00 35 1019.1
20260503203548 20 360 1.6 12.9 0.00 0.00 0.00 38 1019.1
20260503203100 20 360 3.2 12.9 0.00 0.00 0.00 40 1019.3
20260503202553 20 360 4.8 12.9 0.00 0.00 0.00 40 1019.3
20260503202053 20 360 1.6 6.4 0.00 0.00 0.00 42 1019.3
20260503201558 19 0 1.6 9.7 0.00 0.00 0.00 44 1019.4
20260503201052 19 0 3.2 9.7 0.00 0.00 0.00 44 1019.6
20260503200552 19 0 0.0 4.8 0.00 0.00 0.00 43 1019.5
20260503200058 19 0 1.6 9.7 0.00 0.00 0.00 43 1019.6
20260503195558 18 360 1.6 9.7 0.00 0.00 0.00 43 1019.8
20260503195055 18 0 1.6 4.8 0.00 0.00 0.00 42 1019.8
20260503194600 18 0 1.6 8.0 0.00 0.00 0.00 42 1019.9
20260503194053 18 360 3.2 9.7 0.00 0.00 0.00 46 1019.9
20260503193552 18 0 1.6 9.7 0.00 0.00 0.00 44 1020.0
20260503193058 18 360 1.6 6.4 0.00 0.00 0.00 44 1020.1
20260503192552 18 0 0.0 8.0 0.00 0.00 0.00 44 1020.2
20260503192053 18 360 1.6 8.0 0.00 0.00 0.00 43 1020.4
20260503191558 18 360 3.2 8.0 0.00 0.00 0.00 46 1020.5
20260503191054 18 0 0.0 8.0 0.00 0.00 0.00 46 1020.6
20260503190556 18 0 3.2 8.0 0.00 0.00 0.00 43 1020.8
20260503190056 18 0 1.6 8.0 0.00 0.00 0.00 44 1020.9
20260503185552 18 360 0.0 8.0 0.00 0.00 0.00 46 1020.9
20260503185056 18 0 3.2 8.0 0.00 0.00 0.00 45 1021.0
20260503184600 18 360 3.2 6.4 0.00 0.00 0.00 44 1021.0
20260503184056 18 360 1.6 6.4 0.00 0.00 0.00 47 1021.0
20260503183551 17 360 0.0 12.9 0.00 0.00 0.00 45 1021.0
20260503183058 17 0 0.0 12.9 0.00 0.00 0.00 44 1021.1
20260503182552 17 360 3.2 12.9 0.00 0.00 0.00 45 1021.1
20260503182053 17 360 0.0 3.2 0.00 0.00 0.00 45 1021.2
20260503181555 17 0 0.0 4.8 0.00 0.00 0.00 45 1021.1
20260503181053 17 360 0.0 4.8 0.00 0.00 0.00 44 1021.3
20260503180553 17 360 1.6 8.0 0.00 0.00 0.00 44 1021.5
20260503180106 17 360 1.6 8.0 0.00 0.00 0.00 45 1021.5
20260503175553 17 360 1.6 8.0 0.00 0.00 0.00 44 1021.4
20260503175052 17 360 1.6 9.7 0.00 0.00 0.00 42 1021.6
20260503174559 17 0 1.6 9.7 0.00 0.00 0.00 41 1021.6
20260503174052 17 360 3.2 8.0 0.00 0.00 0.00 42 1021.6
20260503173552 17 360 0.0 3.2 0.00 0.00 0.00 43 1021.6
20260503173109 17 0 0.0 4.8 0.00 0.00 0.00 42 1021.8
20260503172553 17 0 0.0 8.0 0.00 0.00 0.00 43 1021.8
20260503172052 17 360 0.0 8.0 0.00 0.00 0.00 44 1021.8
20260503171554 16 360 1.6 8.0 0.00 0.00 0.00 45 1022.0
20260503171052 16 0 1.6 6.4 0.00 0.00 0.00 46 1022.1
20260503170552 16 0 0.0 6.4 0.00 0.00 0.00 47 1022.0
20260503150552 16 360 3.2 14.5 0.00 0.00 0.00 51 1023.1
20260503131049 10 360 1.6 8.0 0.00 0.00 0.00 77 1022.8
20260503130556 10 360 3.2 6.4 0.00 0.00 0.00 78 1022.6
20260503120105 6 0 0.0 0.0 0.00 0.00 0.00 89 1022.7
20260503110551 5 0 0.0 0.0 0.00 0.00 0.00 87 1021.9
20260503110111 5 0 0.0 0.0 0.00 0.00 0.00 87 1021.8
20260503081556 7 0 0.0 1.6 0.00 0.00 0.00 83 1020.2
20260503081051 7 0 0.0 1.6 0.00 0.00 0.00 83 1020.2
20260503080552 7 0 0.0 1.6 0.00 0.00 0.00 83 1020.2
20260503072556 8 0 0.0 3.2 0.00 0.00 0.00 82 1020.0
20260503072051 8 360 1.6 3.2 0.00 0.00 0.00 82 1020.0
20260503071610 8 0 1.6 3.2 0.00 0.00 0.00 81 1019.9
20260503071048 8 0 0.0 0.0 0.00 0.00 0.00 81 1019.9
20260503070551 8 0 0.0 0.0 0.00 0.00 0.00 80 1019.9
20260503060110 9 0 0.0 0.0 0.00 0.00 0.00 76 1019.7
20260503055051 9 0 0.0 0.0 0.00 0.00 0.00 76 1019.7
20260503054559 10 0 0.0 1.6 0.00 0.00 0.00 75 1019.6
20260503054051 10 0 0.0 3.2 0.00 0.00 0.00 75 1019.6
20260503053552 10 0 0.0 3.2 0.00 0.00 0.00 74 1019.6
20260503053051 10 0 0.0 3.2 0.00 0.00 0.00 74 1019.7
20260503052552 10 0 0.0 1.6 0.00 0.00 0.00 73 1019.6
20260503052051 10 0 0.0 1.6 0.00 0.00 0.00 73 1019.5
20260503051551 10 0 0.0 1.6 0.00 0.00 0.00 73 1019.5
20260503051054 10 0 0.0 4.8 0.00 0.00 0.00 74 1019.5
20260503050551 10 0 0.0 4.8 0.00 0.00 0.00 74 1019.4
20260503050058 10 360 0.0 4.8 0.00 0.00 0.00 72 1019.6
20260503045554 10 0 0.0 1.6 0.00 0.00 0.00 72 1019.5
20260503045054 10 0 0.0 1.6 0.00 0.00 0.00 72 1019.4
20260503044554 10 0 0.0 1.6 0.00 0.00 0.00 72 1019.4
20260503044055 10 0 0.0 0.0 0.00 0.00 0.00 71 1019.3
20260503043553 10 0 0.0 0.0 0.00 0.00 0.00 71 1019.3
20260503043053 11 0 0.0 0.0 0.00 0.00 0.00 71 1019.3
20260503042557 11 0 0.0 1.6 0.00 0.00 0.00 70 1019.4
20260503042053 11 0 0.0 1.6 0.00 0.00 0.00 70 1019.3